KC8JWT Weather Reports


Display with metric or nautical units.
time (UTC)temp
F
wind
direction
speed
MPH
gust
MPH
rain 1hr
in
rain 24hr
in
rain mn
in
humidity
%
barometer
mb
20260508082644 38 97 0.0 0.0 0.00 0.00 0.00 91 1014.8
20260508082142 38 97 0.0 0.0 0.00 0.00 0.00 90 1014.9
20260508081639 38 97 0.0 0.0 0.00 0.00 0.00 90 1015.0
20260508081135 38 90 0.0 0.0 0.00 0.00 0.00 90 1015.0
20260508080633 38 96 0.0 0.0 0.00 0.00 0.00 90 1014.9
20260508080131 39 97 0.0 0.0 0.00 0.00 0.00 90 1015.0
20260508075627 39 98 0.0 0.0 0.00 0.00 0.00 90 1015.1
20260508075124 39 98 0.0 0.0 0.00 0.00 0.00 89 1015.1
20260508074622 39 98 0.0 0.0 0.00 0.00 0.00 89 1014.9
20260508074118 39 98 0.0 0.0 0.00 0.00 0.00 89 1014.7
20260508073616 39 93 0.0 1.0 0.00 0.00 0.00 89 1014.9
20260508073114 39 90 0.0 0.0 0.00 0.00 0.00 89 1014.7
20260508072608 39 101 0.0 0.0 0.00 0.00 0.00 89 1014.9
20260508072106 39 98 0.0 0.0 0.00 0.00 0.00 89 1014.8
20260508071604 39 90 0.0 0.0 0.00 0.00 0.00 89 1014.9
20260508071102 39 93 0.0 0.0 0.00 0.00 0.00 89 1014.8
20260508070559 39 97 0.0 0.0 0.00 0.00 0.00 89 1014.7
20260508070057 39 100 0.0 0.0 0.00 0.00 0.00 89 1015.0
20260508065555 39 99 0.0 0.0 0.00 0.00 0.00 88 1014.9
20260508065053 40 100 0.0 0.0 0.00 0.00 0.00 88 1014.9
20260508064550 39 96 0.0 0.0 0.00 0.00 0.00 88 1015.0
20260508064048 39 103 0.0 0.0 0.00 0.00 0.00 88 1014.9
20260508063545 40 98 0.0 0.0 0.00 0.00 0.00 88 1014.9
20260508063043 40 99 0.0 0.0 0.00 0.00 0.00 88 1015.1
20260508062540 40 91 0.0 0.0 0.00 0.00 0.00 87 1015.2
20260508062036 40 99 0.0 0.0 0.00 0.00 0.00 87 1015.1
20260508061534 40 99 0.0 0.0 0.00 0.00 0.00 86 1014.9
20260508061031 40 99 0.0 0.0 0.00 0.00 0.00 86 1015.0
20260508060528 40 99 0.0 0.0 0.00 0.00 0.00 86 1015.3
20260508060025 40 99 0.0 0.0 0.00 0.00 0.00 85 1015.2
20260508055521 40 99 0.0 0.0 0.00 0.00 0.00 85 1015.1
20260508055018 41 98 0.0 0.0 0.00 0.00 0.00 85 1015.1
20260508054514 41 98 0.0 0.0 0.00 0.00 0.00 84 1015.1
20260508054012 41 102 0.0 0.0 0.00 0.00 0.00 84 1015.1
20260508053508 41 103 0.0 0.0 0.00 0.00 0.00 83 1015.1
20260508053007 41 95 0.0 0.0 0.00 0.00 0.00 84 1015.2
20260508052504 41 100 0.0 0.0 0.00 0.00 0.00 83 1015.3
20260508052000 41 98 0.0 0.0 0.00 0.00 0.00 82 1015.2
20260508051455 41 98 0.0 0.0 0.00 0.00 0.00 82 1015.1
20260508050951 42 103 0.0 0.0 0.00 0.00 0.00 81 1015.5
20260508050448 42 103 0.0 0.0 0.00 0.00 0.00 81 1015.5
20260508045945 42 103 0.0 0.0 0.00 0.00 0.00 80 1015.5
20260508045442 42 103 0.0 0.0 0.00 0.00 0.00 80 1015.5
20260508044939 42 103 0.0 0.0 0.00 0.00 0.00 79 1015.2
20260508044437 42 104 0.0 0.0 0.00 0.00 0.00 78 1015.2
20260508043931 42 104 0.0 0.0 0.00 0.00 0.00 77 1015.3
20260508043430 42 103 0.0 0.0 0.00 0.00 0.00 78 1015.0
20260508042926 43 103 0.0 0.0 0.00 0.00 0.00 77 1015.2
20260508042424 43 103 0.0 0.0 0.00 0.00 0.00 77 1015.0
20260508041920 43 103 0.0 0.0 0.00 0.00 0.00 76 1015.3
20260508041417 43 103 0.0 0.0 0.00 0.00 0.00 76 1014.9
20260508040913 44 103 0.0 0.0 0.00 0.00 0.00 75 1015.1
20260508040411 44 103 0.0 0.0 0.00 0.00 0.00 75 1015.1
20260508035909 44 104 0.0 0.0 0.00 0.00 0.00 75 1015.1
20260508035405 44 104 0.0 0.0 0.00 0.00 0.00 75 1015.0
20260508034902 44 104 0.0 0.0 0.00 0.00 0.00 74 1015.0
20260508034400 44 103 0.0 0.0 0.00 0.00 0.00 74 1015.0
20260508033856 44 105 0.0 0.0 0.00 0.00 0.00 74 1014.9
20260508033354 44 105 0.0 0.0 0.00 0.00 0.00 73 1015.0
20260508032852 44 105 0.0 0.0 0.00 0.00 0.00 73 1014.9
20260508032349 45 105 0.0 0.0 0.00 0.00 0.00 73 1014.8
20260508031845 45 105 0.0 0.0 0.00 0.00 0.00 72 1014.7
20260508031342 45 108 0.0 0.0 0.00 0.00 0.00 71 1014.9
20260508030838 45 111 0.0 0.0 0.00 0.00 0.00 70 1014.8
20260508030336 46 104 0.0 0.0 0.00 0.00 0.00 69 1014.8
20260508025832 46 98 0.0 0.0 0.00 0.00 0.00 68 1014.9
20260508025329 47 101 0.0 0.0 0.00 0.00 0.00 67 1014.6
20260508024826 47 105 0.0 0.0 0.00 0.00 0.00 66 1014.7
20260508024323 47 106 0.0 0.0 0.00 0.00 0.00 65 1014.6
20260508023820 48 106 0.0 0.0 0.00 0.00 0.00 63 1014.5
20260508023316 48 105 0.0 0.0 0.00 0.00 0.00 62 1015.0
20260508022813 48 107 0.0 0.0 0.00 0.00 0.00 60 1014.9
20260508022309 49 106 0.0 0.0 0.00 0.00 0.00 59 1014.8
20260508021806 50 92 0.0 0.0 0.00 0.00 0.00 58 1014.6
20260508021302 50 93 0.0 0.0 0.00 0.00 0.00 55 1014.5
20260508020758 51 82 0.0 1.0 0.00 0.00 0.00 53 1014.7
20260508020256 51 91 0.0 1.0 0.00 0.00 0.00 50 1014.6
20260508015753 50 85 1.0 2.0 0.00 0.00 0.00 53 1014.6
20260508015250 50 55 1.0 2.0 0.00 0.00 0.00 54 1014.3
20260508014747 51 86 0.0 0.0 0.00 0.00 0.00 54 1014.4
20260508014244 51 92 0.0 1.0 0.00 0.00 0.00 51 1014.3
20260508013739 51 70 2.0 2.0 0.00 0.00 0.00 52 1014.1
20260508013236 51 94 0.0 0.0 0.00 0.00 0.00 55 1014.2
20260508012734 52 100 0.0 0.0 0.00 0.00 0.00 52 1014.2
20260508012230 53 99 0.0 0.0 0.00 0.00 0.00 50 1013.8
20260508011729 53 82 0.0 1.0 0.00 0.00 0.00 49 1013.8
20260508011226 54 88 0.0 1.0 0.00 0.00 0.00 46 1013.9
20260508010722 54 69 1.0 1.0 0.00 0.00 0.00 44 1013.8
20260508010220 54 101 0.0 1.0 0.00 0.00 0.00 44 1014.0
20260508005717 54 48 1.0 1.0 0.00 0.00 0.00 45 1013.9
20260508005214 54 54 1.0 1.0 0.00 0.00 0.00 47 1013.9
20260508004710 55 95 0.0 0.0 0.00 0.00 0.00 44 1013.7
20260508004206 55 105 0.0 0.0 0.00 0.00 0.00 45 1013.7
20260508003703 55 95 0.0 1.0 0.00 0.00 0.00 42 1013.7
20260508003200 56 68 0.0 0.0 0.00 0.00 0.00 42 1013.7
20260508002656 56 97 0.0 0.0 0.00 0.00 0.00 41 1013.6
20260508002155 57 51 1.0 1.0 0.00 0.00 0.00 39 1013.5
20260508001649 57 67 1.0 2.0 0.00 0.00 0.00 38 1013.5
20260508001145 58 359 3.0 3.0 0.00 0.00 0.00 37 1013.3
20260508000642 58 31 2.0 3.0 0.00 0.00 0.00 37 1013.5
20260508000139 58 341 3.0 5.0 0.00 0.00 0.00 36 1013.3
20260507235636 58 98 3.0 6.0 0.00 0.00 0.00 35 1013.2
20260507235133 59 121 1.0 2.0 0.00 0.00 0.00 36 1013.3
20260507234630 59 351 3.0 3.0 0.00 0.00 0.00 35 1013.0
20260507234126 60 74 2.0 5.0 0.00 0.00 0.00 35 1013.1
20260507233623 60 47 4.0 7.0 0.00 0.00 0.00 34 1013.1
20260507233122 61 345 5.0 8.0 0.00 0.00 0.00 33 1012.9
20260507232618 61 91 2.0 2.0 0.00 0.00 0.00 32 1013.1
20260507232115 61 229 3.0 3.0 0.00 0.00 0.00 33 1012.9
20260507231611 61 294 3.0 3.0 0.00 0.00 0.00 33 1012.7
20260507231109 62 313 4.0 5.0 0.00 0.00 0.00 32 1012.7
20260507230605 62 1 5.0 7.0 0.00 0.00 0.00 32 1012.8
20260507225557 62 294 7.0 10.0 0.00 0.00 0.00 30 1012.7
20260507225054 62 291 4.0 6.0 0.00 0.00 0.00 30 1012.6
20260507224549 63 223 6.0 7.0 0.00 0.00 0.00 29 1012.5
20260507224046 63 237 6.0 8.0 0.00 0.00 0.00 28 1012.6
20260507223542 63 3 3.0 3.0 0.00 0.00 0.00 28 1012.4
20260507223039 63 303 5.0 6.0 0.00 0.00 0.00 27 1012.4
20260507222536 64 261 5.0 8.0 0.00 0.00 0.00 27 1012.4
20260507222033 64 62 2.0 5.0 0.00 0.00 0.00 30 1012.3
20260507221529 64 283 3.0 3.0 0.00 0.00 0.00 30 1012.3
20260507221026 64 70 2.0 3.0 0.00 0.00 0.00 28 1012.4
20260507220523 64 276 6.0 7.0 0.00 0.00 0.00 27 1012.3
20260507220021 64 259 4.0 5.0 0.00 0.00 0.00 28 1012.3
20260507215516 64 114 2.0 2.0 0.00 0.00 0.00 28 1012.1
20260507215015 64 265 8.0 9.0 0.00 0.00 0.00 27 1012.1
20260507214511 64 353 4.0 5.0 0.00 0.00 0.00 28 1011.9
20260507214007 64 250 7.0 11.0 0.00 0.00 0.00 29 1012.0
20260507213504 64 295 5.0 6.0 0.00 0.00 0.00 28 1012.0
20260507213001 64 289 6.0 9.0 0.00 0.00 0.00 28 1011.8
20260507212456 65 267 5.0 5.0 0.00 0.00 0.00 27 1011.7
20260507211954 65 267 5.0 5.0 0.00 0.00 0.00 27 1011.8
20260507211450 65 347 5.0 6.0 0.00 0.00 0.00 25 1011.8
20260507210947 65 267 4.0 5.0 0.00 0.00 0.00 24 1011.7
20260507210444 65 348 8.0 11.0 0.00 0.00 0.00 27 1011.7
20260507205941 65 5 7.0 8.0 0.00 0.00 0.00 27 1011.7
20260507205438 65 253 7.0 11.0 0.00 0.00 0.00 27 1011.7
20260507204934 66 3 3.0 3.0 0.00 0.00 0.00 27 1011.7
20260507204430 65 278 3.0 5.0 0.00 0.00 0.00 27 1011.8
20260507203928 65 275 4.0 5.0 0.00 0.00 0.00 25 1011.8
20260507203426 65 12 8.0 10.0 0.00 0.00 0.00 27 1011.4
20260507202922 65 260 7.0 9.0 0.00 0.00 0.00 27 1011.5
20260507202419 65 262 7.0 9.0 0.00 0.00 0.00 27 1011.4
20260507201914 65 292 10.0 13.0 0.00 0.00 0.00 26 1011.5
20260507201410 66 47 5.0 6.0 0.00 0.00 0.00 28 1011.7
20260507200907 66 319 4.0 6.0 0.00 0.00 0.00 28 1011.7
20260507200402 65 267 9.0 14.0 0.00 0.00 0.00 28 1011.8
20260507195858 65 13 3.0 3.0 0.00 0.00 0.00 29 1011.8
20260507195356 64 12 7.0 8.0 0.00 0.00 0.00 27 1011.6
20260507194853 66 237 11.0 14.0 0.00 0.00 0.00 27 1011.8
20260507194349 65 233 7.0 10.0 0.00 0.00 0.00 28 1011.7
20260507193846 65 286 10.0 11.0 0.00 0.00 0.00 28 1011.7
20260507193343 65 335 11.0 14.0 0.00 0.00 0.00 28 1011.9
20260507192839 65 78 4.0 5.0 0.00 0.00 0.00 29 1011.9
20260507192336 66 36 2.0 2.0 0.00 0.00 0.00 30 1011.8
20260507191832 65 331 1.0 2.0 0.00 0.00 0.00 30 1012.1
20260507191328 65 210 3.0 5.0 0.00 0.00 0.00 33 1012.4
20260507190826 66 50 7.0 10.0 0.00 0.00 0.00 30 1012.3
20260507190324 64 254 4.0 7.0 0.00 0.00 0.00 34 1012.3
20260507185822 63 292 7.0 8.0 0.00 0.00 0.00 30 1012.3
20260507185319 63 271 7.0 9.0 0.00 0.00 0.00 31 1012.5
20260507184816 63 92 3.0 5.0 0.00 0.00 0.00 33 1012.2
20260507184314 65 256 9.0 13.0 0.00 0.00 0.00 31 1012.4
20260507183810 66 258 10.0 11.0 0.00 0.00 0.00 30 1012.3
20260507183308 66 269 6.0 8.0 0.00 0.00 0.00 32 1012.2
20260507182805 66 210 7.0 8.0 0.00 0.00 0.00 30 1012.3
20260507182300 65 226 3.0 5.0 0.00 0.00 0.00 30 1012.1
20260507181757 64 76 1.0 2.0 0.00 0.00 0.00 31 1012.0
20260507181253 64 10 4.0 7.0 0.00 0.00 0.00 33 1012.3
20260507180750 64 246 9.0 11.0 0.00 0.00 0.00 32 1011.9
20260507180247 65 222 5.0 7.0 0.00 0.00 0.00 31 1012.5
20260507175742 63 259 1.0 2.0 0.00 0.00 0.00 33 1012.1
20260507175239 63 350 7.0 11.0 0.00 0.00 0.00 31 1012.3
20260507174737 62 124 2.0 3.0 0.00 0.00 0.00 35 1012.6
20260507174235 64 313 7.0 8.0 0.00 0.00 0.00 30 1012.6
20260507173732 64 223 6.0 8.0 0.00 0.00 0.00 32 1012.4
20260507173229 64 236 5.0 6.0 0.00 0.00 0.00 33 1012.5
20260507172725 64 251 5.0 7.0 0.00 0.00 0.00 33 1012.5
20260507172222 63 294 7.0 10.0 0.00 0.00 0.00 34 1012.9
20260507171722 64 265 8.0 9.0 0.00 0.00 0.00 33 1012.7
20260507171220 63 247 5.0 8.0 0.00 0.00 0.00 35 1012.7
20260507170716 64 301 6.0 7.0 0.00 0.00 0.00 35 1012.8
20260507170214 62 61 4.0 6.0 0.00 0.00 0.00 38 1013.1
20260507165709 63 285 8.0 8.0 0.00 0.00 0.00 33 1013.0
20260507165206 63 286 6.0 8.0 0.00 0.00 0.00 36 1013.0
20260507164702 63 29 3.0 5.0 0.00 0.00 0.00 36 1013.1
20260507164159 63 234 5.0 7.0 0.00 0.00 0.00 38 1013.1
20260507163656 63 327 4.0 5.0 0.00 0.00 0.00 34 1013.3
20260507163154 62 231 6.0 7.0 0.00 0.00 0.00 38 1013.2
20260507162649 61 184 3.0 3.0 0.00 0.00 0.00 38 1013.4
20260507162146 62 211 5.0 10.0 0.00 0.00 0.00 36 1013.4
20260507161642 62 120 3.0 6.0 0.00 0.00 0.00 38 1013.4
20260507161139 62 149 3.0 3.0 0.00 0.00 0.00 38 1013.4
20260507160635 61 175 4.0 6.0 0.00 0.00 0.00 37 1013.3
20260507160132 62 287 6.0 7.0 0.00 0.00 0.00 35 1013.3
20260507155628 63 198 4.0 5.0 0.00 0.00 0.00 37 1013.4
20260507155124 60 111 3.0 5.0 0.00 0.00 0.00 39 1013.6
20260507154621 60 249 8.0 10.0 0.00 0.00 0.00 38 1013.4
20260507154119 61 260 5.0 7.0 0.00 0.00 0.00 37 1013.6
20260507153615 61 326 7.0 9.0 0.00 0.00 0.00 38 1013.6
20260507153112 60 166 3.0 5.0 0.00 0.00 0.00 39 1013.4
20260507152608 60 281 4.0 6.0 0.00 0.00 0.00 39 1013.6
20260507152104 60 41 2.0 3.0 0.00 0.00 0.00 37 1013.5
20260507151600 59 84 2.0 2.0 0.00 0.00 0.00 40 1013.3
20260507151057 58 265 5.0 7.0 0.00 0.00 0.00 42 1013.7
20260507150554 58 149 4.0 6.0 0.00 0.00 0.00 42 1013.8
20260507150051 58 267 2.0 3.0 0.00 0.00 0.00 43 1013.7
20260507145546 58 255 4.0 6.0 0.00 0.00 0.00 42 1013.8
20260507145044 59 228 3.0 5.0 0.00 0.00 0.00 45 1013.6
20260507144540 58 136 3.0 3.0 0.00 0.00 0.00 45 1013.9
20260507144038 57 255 4.0 5.0 0.00 0.00 0.00 49 1013.7
20260507143535 58 242 4.0 5.0 0.00 0.00 0.00 49 1013.9
20260507143032 59 179 2.0 2.0 0.00 0.00 0.00 47 1014.1
20260507142527 60 186 3.0 5.0 0.00 0.00 0.00 49 1014.3
20260507142025 59 140 2.0 3.0 0.00 0.00 0.00 50 1014.1
20260507141521 57 238 3.0 6.0 0.00 0.00 0.00 53 1014.0
20260507141017 58 304 5.0 6.0 0.00 0.00 0.00 51 1014.3
20260507140514 58 87 1.0 1.0 0.00 0.00 0.00 53 1014.2
20260507140012 57 99 0.0 0.0 0.00 0.00 0.00 53 1014.3
20260507135509 56 119 2.0 2.0 0.00 0.00 0.00 53 1014.5
20260507135006 55 244 4.0 5.0 0.00 0.00 0.00 54 1014.5
20260507134502 55 247 4.0 5.0 0.00 0.00 0.00 56 1014.6
20260507133958 56 18 3.0 3.0 0.00 0.00 0.00 56 1014.5
20260507133454 56 150 2.0 3.0 0.00 0.00 0.00 55 1014.5
20260507132953 56 161 3.0 5.0 0.00 0.00 0.00 54 1014.6
20260507132448 56 90 0.0 1.0 0.00 0.00 0.00 53 1014.6
20260507131945 56 149 2.0 2.0 0.00 0.00 0.00 58 1014.6
20260507131442 53 151 1.0 2.0 0.00 0.00 0.00 68 1014.6
20260507130939 53 179 3.0 3.0 0.00 0.00 0.00 64 1014.8
20260507130436 53 143 2.0 2.0 0.00 0.00 0.00 67 1014.8
20260507125935 53 214 1.0 2.0 0.00 0.00 0.00 68 1015.0
20260507125433 53 157 2.0 2.0 0.00 0.00 0.00 68 1014.7
20260507124930 53 186 2.0 2.0 0.00 0.00 0.00 66 1014.7
20260507124426 51 141 2.0 2.0 0.00 0.00 0.00 71 1014.8
20260507123924 51 156 2.0 2.0 0.00 0.00 0.00 69 1014.7
20260507123421 51 141 0.0 1.0 0.00 0.00 0.00 72 1015.1
20260507122918 51 165 1.0 2.0 0.00 0.00 0.00 73 1014.6
20260507122413 50 138 2.0 2.0 0.00 0.00 0.00 73 1014.8
20260507121909 50 117 1.0 1.0 0.00 0.00 0.00 74 1014.7
20260507121405 50 141 0.0 1.0 0.00 0.00 0.00 75 1014.9
20260507120902 50 124 1.0 1.0 0.00 0.00 0.00 74 1014.5
20260507120358 50 118 0.0 1.0 0.00 0.00 0.00 75 1014.5
20260507115854 51 90 1.0 1.0 0.00 0.00 0.00 74 1014.5
20260507115350 51 105 0.0 0.0 0.00 0.00 0.00 75 1014.5
20260507114846 50 107 0.0 0.0 0.00 0.00 0.00 76 1014.6
20260507114343 50 110 0.0 0.0 0.00 0.00 0.00 77 1014.3
20260507113840 49 100 0.0 0.0 0.00 0.00 0.00 77 1014.8
20260507113338 48 101 0.0 0.0 0.00 0.00 0.00 78 1014.5
20260507112835 48 101 0.0 0.0 0.00 0.00 0.00 78 1014.5
20260507112332 46 101 0.0 0.0 0.00 0.00 0.00 80 1014.5
20260507111830 47 101 0.0 0.0 0.00 0.00 0.00 79 1014.3
20260507111326 46 102 0.0 0.0 0.00 0.00 0.00 80 1014.4
20260507110822 45 102 0.0 0.0 0.00 0.00 0.00 82 1014.4
20260507110319 44 103 0.0 0.0 0.00 0.00 0.00 85 1014.3
20260507105816 42 103 0.0 0.0 0.00 0.00 0.00 89 1014.2
20260507105312 42 101 0.0 0.0 0.00 0.00 0.00 90 1014.1
20260507104809 41 102 0.0 0.0 0.00 0.00 0.00 91 1014.3
20260507104306 41 102 0.0 0.0 0.00 0.00 0.00 92 1014.3
20260507103802 41 102 0.0 0.0 0.00 0.00 0.00 92 1013.9
20260507103258 41 102 0.0 0.0 0.00 0.00 0.00 91 1013.8
20260507102755 41 102 0.0 0.0 0.00 0.00 0.00 91 1013.9
20260507102251 41 102 0.0 0.0 0.00 0.00 0.00 91 1013.9
20260507101747 41 103 0.0 0.0 0.00 0.00 0.00 91 1013.9
20260507101242 41 104 0.0 0.0 0.00 0.00 0.00 91 1013.9
20260507100740 41 112 0.0 0.0 0.00 0.00 0.00 91 1013.9
20260507100238 41 111 0.0 0.0 0.00 0.00 0.00 90 1013.8
20260507095736 42 101 0.0 0.0 0.00 0.00 0.00 90 1013.7
20260507095232 42 101 0.0 0.0 0.00 0.00 0.00 91 1013.5
20260507094729 42 101 0.0 0.0 0.00 0.00 0.00 91 1013.8
20260507094226 42 101 0.0 0.0 0.00 0.00 0.00 90 1013.6
20260507093723 42 101 0.0 0.0 0.00 0.00 0.00 89 1013.8
20260507093221 42 101 0.0 0.0 0.00 0.00 0.00 89 1013.8
20260507092718 42 101 0.0 0.0 0.00 0.00 0.00 89 1013.8
20260507092215 42 101 0.0 0.0 0.00 0.00 0.00 89 1013.7
20260507091711 42 101 0.0 1.0 0.00 0.00 0.00 89 1013.9
20260507091208 42 105 0.0 0.0 0.00 0.00 0.00 89 1013.8
20260507090703 43 109 0.0 0.0 0.00 0.00 0.00 88 1013.7
20260507090200 43 112 0.0 0.0 0.00 0.00 0.00 88 1013.6
20260507085657 43 89 0.0 0.0 0.00 0.00 0.00 87 1013.5
20260507085154 44 89 0.0 0.0 0.00 0.00 0.00 87 1013.5
20260507084651 44 89 0.0 0.0 0.00 0.00 0.00 86 1013.7
20260507084147 44 89 0.0 0.0 0.00 0.00 0.00 86 1013.9
20260507083644 44 89 1.0 1.0 0.00 0.00 0.00 86 1013.6
20260507083141 44 89 0.0 0.0 0.00 0.00 0.00 85 1013.8